sat.trackr.live / text

‹ back to catalog

GPS BIIRM-2 (PRN 31)

NORAD 29486 · 2006-042A

PAYLOAD ACTIVE UNKNOWN

§ Identity

Operator
Country
US
Launch date
2006-09-25
Launch site
AFETR
Launch vehicle
Mass (kg)
RCS (m²)
11.79

Purposes: nav

External: N2YO · Heavens-Above · Gunter

§ Orbital elements

Epoch: 2026-05-25T03:19:08.535936Z

Period
717.95 min
Inclination
54.7074°
Eccentricity
0.0106241
Mean motion
2.00571164 rev/d
Perigee alt
19,899.4 km
Apogee alt
20,463.7 km
Semi-major
26,559.7 km
B*
0.0000e+0
RAAN
152.2538°
Arg perigee
53.9126°
Mean anomaly
3.0347°
Rev number
14,393

§ Raw data

GPS BIIRM-2 (PRN 31)1 29486U 06042A   26145.13829324  .00000091  00000+0  00000+0 0  99992 29486  54.7074 152.2538 0106241  53.9126   3.0347  2.00571164143937

JSON: /api/v1/satellites/29486 · /tle

For live sub-satellite position, see the globe view (requires WebGL).

§ Visibility from observer

Set your observer location to see the next 7 days of passes ≥ 10°. The values pass through the URL so the page stays shareable.

No JS? Fill the form by hand. The geolocation button needs JavaScript.